This demonstration page uses our WeatherBlox Daily Observations layout. Learn more.

Left ArrowRight Arrow

Hourly Observations for December 20, 2021

Temp ( °F °C ) Dew Point ( °F °C ) Humidity (%) Winds ( mph kmh ) Pressure ( in mb ) Visibility ( mi km ) Precip ( " mm )
12:51 am 00:51 Clear 30 -1.1 18 -7.8 61 61 Calm 30.18 1022 10 16 0.00 0.00
1:51 am 01:51 Clear 30 -1.1 19 -7.2 64 64 NNW 3 6 30.18 1022 10 16 0.00 0.00
2:51 am 02:51 Clear 29 -1.7 18 -7.8 63 63 Calm 30.18 1022 10 16 0.00 0.00
3:51 am 03:51 Clear 29 -1.7 18 -7.8 63 63 SE 3 6 30.17 1022 10 16 0.00 0.00
4:51 am 04:51 Clear 26 -3.3 17 -8.3 69 69 SSW 3 6 30.19 1022 10 16 0.00 0.00
5:51 am 05:51 Clear 26 -3.3 18 -7.8 71 71 ENE 3 6 30.21 1023 10 16 0.00 0.00
6:51 am 06:51 Clear 26 -3.3 18 -7.8 71 71 SE 5 7 30.25 1024 10 16 0.00 0.00
7:51 am 07:51 Sunny 30 -1.1 20 -6.7 66 66 SE 5 7 30.26 1025 10 16 0.00 0.00
8:51 am 08:51 Sunny 35 1.7 22 -5.6 59 59 S 3 6 30.28 1025 10 16 0.00 0.00
9:51 am 09:51 Sunny 43 6.1 23 -5 45 45 VRB 3 6 30.27 1025 10 16 0.00 0.00
10:51 am 10:51 Sunny 49 9.4 26 -3.3 41 41 Calm 30.25 1024 10 16 0.00 0.00
11:51 am 11:51 Sunny 52 11.1 26 -3.3 37 37 Calm 30.22 1024 10 16 0.00 0.00
12:51 pm 12:51 Sunny 56 13.3 26 -3.3 32 32 WNW 3 6 30.19 1022 10 16 0.00 0.00
1:51 pm 13:51 Sunny 58 14.4 26 -3.3 29 29 Calm 30.16 1021 10 16 0.00 0.00
2:51 pm 14:51 Sunny 60 15.6 27 -2.8 28 28 W 7 11 30.15 1021 10 16 0.00 0.00
3:51 pm 15:51 Sunny 61 16.1 26 -3.3 26 26 Calm 30.13 1020 10 16 0.00 0.00
4:51 pm 16:51 Sunny 59 15 26 -3.3 28 28 W 3 6 30.14 1021 10 16 0.00 0.00
5:51 pm 17:51 Clear 52 11.1 25 -3.9 35 35 NW 5 7 30.16 1022 10 16 0.00 0.00
6:51 pm 18:51 Clear 47 8.3 24 -4.4 41 41 NNE 7 11 30.19 1022 10 16 0.00 0.00
7:51 pm 19:51 Clear 43 6.1 24 -4.4 47 47 N 5 7 30.20 1023 10 16 0.00 0.00
8:51 pm 20:51 Clear 41 5 22 -5.6 47 47 E 6 9 30.22 1023 10 16 0.00 0.00
9:51 pm 21:51 Clear 40 4.4 22 -5.6 49 49 ESE 8 13 30.19 1022 10 16 0.00 0.00
10:51 pm 22:51 Clear 40 4.4 22 -5.6 49 49 NE 3 6 30.20 1023 10 16 0.00 0.00
11:51 pm 23:51 Clear 39 3.9 22 -5.6 50 50 Calm 30.19 1023 10 16 0.00 0.00

Powered by AerisWeather